User: anonymous   Login
Location: The Jewett Observatory
(46.7288°N, 117.1525°W)
Time: 12:25:41
(UTC-08:00)
Language:

Cosmos 1633 - Orbit

View from above orbital plane
View from above orbital plane
View from above satellite
View from above satellite

Ground track
Ground track

The orbit data is extracted from the following two-line orbital elements,

1 15592U 85020A   17022.17462023  .00001324  00000-0  47131-4 0  9994
2 15592  82.5391 105.5583 0013059 340.1608  19.9122 15.27969401741997
Epoch (UTC): 22 January 2017 04:11:27
Eccentricity: 0.0013059
inclination: 82.5391°
perigee height: 473 km
apogee height: 491 km
right ascension of ascending node: 105.5583°
argument of perigee: 340.1608°
revolutions per day: 15.27969401
mean anomaly at epoch: 19.9122°
orbit number at epoch: 74199

The dashed part of the orbit path shows where the satellite is in the earth's shadow,  

DLR